COSMOS 2251 DEB, 47116

Orbit data source: Space-Track

COSMOS 2251 DEB, 47116 is space debris in LEO originally from a launch on Wed, 16 Jun 1993 UTC launched from the Plesetsk Missile And Space Complex (PKMTR). The debris from Iridium 33, an American commercial communications satellite, has been tracked extensively since its accidental collision with the defunct Russian satellite Cosmos 2251 in 2009. This event, occurring at high speed in low Earth orbit (LEO), generated thousands of pieces of space debris, significantly increasing the risk of further collisions. The Iridium 33 debris cloud has impacted space traffic management and orbital debris mitigation strategies, making it a subject of ongoing study in space situational awareness.

Loading next visibility...
Identifier
47116, 1993-036BYJ
Orbit
LEO
Country
Flag of CISCIS
Related business
Manufacturer
Unknown
Mission
Spacecraft
Bus & Motor
Unknown
Mass
Unknown
Launch date (UTC)
1993-06-16 (33 years ago)
Launch vehicle
Unknown
Launch site
Plesetsk Missile And Space Complex (PKMTR)
Object type
Payload
Rocket body
Debris
Shape & HBR
Unknown shape, 0.1 m
Radar Cross Section
Small (<0.1 m²)

Expand to show TLE details & history
Last TLE update: 1 week ago

TLE from 1 week ago
0 COSMOS 2251 DEB
1 47116U 93036BYJ 26164.45842450  .00022886  00000-0  14673-2 0  9990
2 47116  74.0194 227.0014 0021133 289.8180  82.3514 15.08257401622576
Epoch: 2026-06-13T11:00Z
TLE epoch observation values (Epoch: 2026-06-13T11:00:07.876Z)
Latitude
11.8841°
Longitude
163.6315°
Altitude
541.541 km
Speed
7.594 km/s
True Right ascension
15h 21m 45s
True Declination
11° 48' 46"
Sunlit
Object was in full shadow at epoch
Visualization orbit readout
Latitude
Unknown
Longitude
Unknown
Altitude
Unknown
Speed
Unknown
Apparent Right ascension
Unknown
Apparent Declination
Unknown
Sunlit
N/A
Visualization observer readout
Local Sidereal Time
21:41:28
Azimuth
Unknown
Elevation
Unknown
Doppler factor
Unknown
Orbital elements
Apogee altitude
553.689 km
Perigee altitude
524.453 km
Semi-major axis
6,917.208 km
Eccentricity
0.00211
Inclination
74.0194°
RAAN
227.0014°
Arg. of periapsis
289.818°
True anomaly
82.5915°
Mean anomaly
82.3514°
Eccentric anomaly
82.47144°
Mean motion
3.77265 °/min
Orbital period
95.42 mins
BSTAR
0.0014673
Loading maneuver chart data...
Computing Atmospheric mass density...

Documentation

Showing up to 5 results
|